When you browse on this site, cookies collect data to enhance your experience and personalize the content and advertising you see.
Visit our Privacy Policy to learn more. By continuing to use the site, you agree to this use of cookies and data.
  • In Deutschland
  • Länderverzeichnis
  • Für 7 Tage
  • Wassertemperatur
  • Wetterkarte
  • Widgets
  • user-avatar
    Anmelden

    Stündliche Wetter Duisburg

    Heute, 15 Oktober, Dienstag

    Zeit Temperatur Niederschläge Wind Luftdruck Luftfeuchtigkeit
    00:00 +18°C° 0 mm 3 m/S 753 mmHg 73%
    01:00 +18°C° 0 mm 3 m/S 752 mmHg 75%
    02:00 +17°C° 0 mm 3 m/S 752 mmHg 77%
    03:00 +17°C° 0 mm 2 m/S 751 mmHg 79%
    04:00 +17°C° 0 mm 2 m/S 751 mmHg 80%
    05:00 +16°C° 0 mm 2 m/S 751 mmHg 81%
    06:00 +16°C° 0 mm 1 m/S 751 mmHg 82%
    07:00 +17°C° 0 mm 2 m/S 751 mmHg 80%
    08:00 +17°C° 0 mm 2 m/S 751 mmHg 78%
    09:00 +18°C° 0 mm 2 m/S 751 mmHg 75%
    10:00 +19°C° 0 mm 2 m/S 751 mmHg 73%
    11:00 +19°C° 0 mm 2 m/S 751 mmHg 71%
    12:00 +20°C° 0 mm 3 m/S 751 mmHg 68%
    13:00 +19°C° 0.3 mm 3 m/S 751 mmHg 73%
    14:00 +17°C° 0.3 mm 3 m/S 751 mmHg 79%
    15:00 +16°C° 0.3 mm 3 m/S 751 mmHg 84%
    16:00 +16°C° 2.5 mm 3 m/S 751 mmHg 87%
    17:00 +14°C° 2.5 mm 3 m/S 751 mmHg 89%
    18:00 +14°C° 2.5 mm 3 m/S 751 mmHg 92%
    19:00 +13°C° 2.2 mm 3 m/S 752 mmHg 90%
    20:00 +13°C° 2.2 mm 4 m/S 752 mmHg 88%
    21:00 +13°C° 2.2 mm 4 m/S 753 mmHg 86%
    22:00 +13°C° 0.8 mm 4 m/S 753 mmHg 84%
    23:00 +13°C° 0.8 mm 4 m/S 753 mmHg 82%

    Morgen, 16 Oktober, Mittwoch

    Zeit Temperatur Niederschläge Wind Luftdruck Luftfeuchtigkeit
    00:00 +12°C° 0.8 mm 3 m/S 754 mmHg 79%
    01:00 +12°C° 0.1 mm 4 m/S 753 mmHg 80%
    02:00 +12°C° 0.1 mm 4 m/S 753 mmHg 81%
    03:00 +10°C° 0.1 mm 5 m/S 753 mmHg 82%
    04:00 +10°C° 0 mm 5 m/S 754 mmHg 82%
    05:00 +10°C° 0 mm 5 m/S 754 mmHg 81%
    06:00 +11°C° 0 mm 4 m/S 754 mmHg 81%
    07:00 +11°C° 0 mm 4 m/S 754 mmHg 79%
    08:00 +12°C° 0 mm 5 m/S 754 mmHg 78%
    09:00 +13°C° 0 mm 5 m/S 754 mmHg 76%
    10:00 +13°C° 0 mm 5 m/S 754 mmHg 76%
    11:00 +14°C° 0 mm 5 m/S 754 mmHg 75%
    12:00 +15°C° 0 mm 5 m/S 754 mmHg 74%
    13:00 +14°C° 0.2 mm 5 m/S 754 mmHg 77%
    14:00 +14°C° 0.2 mm 5 m/S 754 mmHg 80%
    15:00 +13°C° 0.2 mm 5 m/S 753 mmHg 84%
    16:00 +13°C° 0.3 mm 4 m/S 753 mmHg 83%
    17:00 +13°C° 0.3 mm 4 m/S 754 mmHg 82%
    18:00 +13°C° 0.3 mm 4 m/S 754 mmHg 82%
    19:00 +13°C° 0.4 mm 4 m/S 754 mmHg 82%
    20:00 +13°C° 0.4 mm 4 m/S 754 mmHg 82%
    21:00 +13°C° 0.4 mm 4 m/S 754 mmHg 82%
    22:00 +13°C° 0.8 mm 4 m/S 754 mmHg 84%
    23:00 +13°C° 0.8 mm 5 m/S 754 mmHg 86%

    übermorgen, 17 Oktober, Donnerstag

    Zeit Temperatur Niederschläge Wind Luftdruck Luftfeuchtigkeit
    00:00 +13°C° 0.8 mm 5 m/S 754 mmHg 87%
    01:00 +13°C° 0.4 mm 5 m/S 754 mmHg 87%
    02:00 +13°C° 0.4 mm 5 m/S 754 mmHg 86%
    03:00 +13°C° 0.4 mm 4 m/S 754 mmHg 86%
    04:00 +13°C° 0.2 mm 4 m/S 754 mmHg 87%
    05:00 +13°C° 0.2 mm 3 m/S 754 mmHg 88%
    06:00 +13°C° 0.2 mm 3 m/S 754 mmHg 89%
    07:00 +13°C° 0.4 mm 3 m/S 755 mmHg 89%
    08:00 +13°C° 0.4 mm 4 m/S 755 mmHg 88%
    09:00 +14°C° 0.4 mm 4 m/S 756 mmHg 87%
    10:00 +14°C° 0.1 mm 4 m/S 756 mmHg 79%
    11:00 +15°C° 0.1 mm 4 m/S 756 mmHg 71%
    12:00 +17°C° 0.1 mm 4 m/S 756 mmHg 62%
    13:00 +15°C° 0 mm 4 m/S 757 mmHg 64%
    14:00 +15°C° 0 mm 4 m/S 757 mmHg 65%
    15:00 +14°C° 0 mm 4 m/S 757 mmHg 66%
    16:00 +14°C° 0 mm 4 m/S 757 mmHg 65%
    17:00 +13°C° 0 mm 4 m/S 757 mmHg 64%
    18:00 +13°C° 0 mm 3 m/S 758 mmHg 63%
    19:00 +12°C° 0 mm 3 m/S 758 mmHg 67%
    20:00 +12°C° 0 mm 3 m/S 758 mmHg 71%
    21:00 +11°C° 0 mm 3 m/S 758 mmHg 75%
    22:00 +11°C° 0 mm 3 m/S 758 mmHg 76%
    23:00 +11°C° 0 mm 3 m/S 758 mmHg 78%

    18 Oktober, Freitag

    Zeit Temperatur Niederschläge Wind Luftdruck Luftfeuchtigkeit
    00:00 +11°C° 0 mm 3 m/S 757 mmHg 80%
    01:00 +11°C° 0 mm 3 m/S 757 mmHg 80%
    02:00 +12°C° 0 mm 3 m/S 757 mmHg 80%
    03:00 +12°C° 0 mm 3 m/S 756 mmHg 80%
    04:00 +12°C° 0.3 mm 3 m/S 756 mmHg 83%
    05:00 +12°C° 0.3 mm 4 m/S 756 mmHg 86%
    06:00 +12°C° 0.3 mm 4 m/S 755 mmHg 90%
    07:00 +13°C° 0.2 mm 4 m/S 756 mmHg 86%
    08:00 +13°C° 0.2 mm 5 m/S 756 mmHg 82%
    09:00 +14°C° 0.2 mm 5 m/S 756 mmHg 78%
    10:00 +15°C° 0.1 mm 5 m/S 756 mmHg 71%
    11:00 +15°C° 0.1 mm 6 m/S 756 mmHg 64%
    12:00 +16°C° 0.1 mm 6 m/S 756 mmHg 57%
    13:00 +16°C° 0 mm 5 m/S 756 mmHg 58%
    14:00 +16°C° 0 mm 5 m/S 756 mmHg 59%
    15:00 +17°C° 0 mm 4 m/S 756 mmHg 60%
    16:00 +15°C° 0 mm 4 m/S 756 mmHg 64%
    17:00 +14°C° 0 mm 3 m/S 757 mmHg 68%
    18:00 +12°C° 0 mm 3 m/S 757 mmHg 73%
    19:00 +12°C° 0 mm 3 m/S 757 mmHg 74%
    20:00 +12°C° 0 mm 3 m/S 757 mmHg 75%
    21:00 +12°C° 0 mm 3 m/S 757 mmHg 76%
    22:00 +11°C° 0 mm 3 m/S 757 mmHg 76%
    23:00 +11°C° 0 mm 3 m/S 757 mmHg 77%

    19 Oktober, Samstag

    Zeit Temperatur Niederschläge Wind Luftdruck Luftfeuchtigkeit
    00:00 +11°C° 0 mm 3 m/S 757 mmHg 78%
    01:00 +11°C° 0 mm 3 m/S 756 mmHg 77%
    02:00 +11°C° 0 mm 3 m/S 756 mmHg 77%
    03:00 +11°C° 0 mm 3 m/S 756 mmHg 77%
    04:00 +11°C° 0 mm 4 m/S 756 mmHg 78%
    05:00 +11°C° 0 mm 4 m/S 756 mmHg 79%
    06:00 +11°C° 0 mm 4 m/S 756 mmHg 80%
    07:00 +12°C° 0 mm 4 m/S 756 mmHg 77%
    08:00 +13°C° 0 mm 4 m/S 755 mmHg 74%
    09:00 +14°C° 0 mm 5 m/S 755 mmHg 71%
    10:00 +15°C° 0 mm 5 m/S 755 mmHg 67%
    11:00 +15°C° 0 mm 4 m/S 755 mmHg 63%
    12:00 +17°C° 0 mm 4 m/S 754 mmHg 59%
    13:00 +17°C° 0 mm 4 m/S 754 mmHg 61%
    14:00 +17°C° 0 mm 3 m/S 753 mmHg 64%
    15:00 +17°C° 0 mm 3 m/S 753 mmHg 66%
    16:00 +16°C° 0.2 mm 2 m/S 752 mmHg 70%
    17:00 +15°C° 0.2 mm 2 m/S 752 mmHg 75%
    18:00 +14°C° 0.2 mm 1 m/S 751 mmHg 80%
    19:00 +14°C° 2.1 mm 2 m/S 751 mmHg 84%
    20:00 +13°C° 2.1 mm 2 m/S 751 mmHg 88%
    21:00 +13°C° 2.1 mm 2 m/S 750 mmHg 92%
    22:00 +13°C° 1 mm 2 m/S 750 mmHg 92%
    23:00 +13°C° 1 mm 2 m/S 749 mmHg 91%

    20 Oktober, Sonntag

    Zeit Temperatur Niederschläge Wind Luftdruck Luftfeuchtigkeit
    00:00 +13°C° 1 mm 2 m/S 749 mmHg 91%
    01:00 +13°C° 0 mm 2 m/S 749 mmHg 89%
    02:00 +12°C° 0 mm 3 m/S 749 mmHg 88%
    03:00 +12°C° 0 mm 3 m/S 749 mmHg 86%
    04:00 +12°C° 0 mm 3 m/S 749 mmHg 86%
    05:00 +12°C° 0 mm 4 m/S 749 mmHg 86%
    06:00 +12°C° 0 mm 4 m/S 749 mmHg 86%
    07:00 +12°C° 0 mm 5 m/S 750 mmHg 83%
    08:00 +12°C° 0 mm 5 m/S 750 mmHg 81%
    09:00 +12°C° 0 mm 5 m/S 750 mmHg 79%
    10:00 +13°C° 0 mm 5 m/S 751 mmHg 73%
    11:00 +14°C° 0 mm 5 m/S 751 mmHg 67%
    12:00 +15°C° 0 mm 6 m/S 751 mmHg 61%
    13:00 +14°C° 0 mm 5 m/S 751 mmHg 62%
    14:00 +14°C° 0 mm 5 m/S 751 mmHg 63%
    15:00 +14°C° 0 mm 5 m/S 752 mmHg 64%
    16:00 +13°C° 0 mm 4 m/S 752 mmHg 67%
    17:00 +12°C° 0 mm 4 m/S 753 mmHg 70%
    18:00 +11°C° 0 mm 4 m/S 753 mmHg 73%
    19:00 +11°C° 0 mm 4 m/S 753 mmHg 73%
    20:00 +10°C° 0 mm 4 m/S 754 mmHg 73%
    21:00 +10°C° 0 mm 4 m/S 754 mmHg 73%
    22:00 +10°C° 0 mm 4 m/S 754 mmHg 74%
    23:00 +10°C° 0 mm 3 m/S 754 mmHg 75%
    Mehr zeigen